Home   Weather   Culver City   Past weeks
Flag for USA

Past Weather in Culver City, California, USA — Yesterday and Last 2 Weeks

Now
76 °F

Clear.


Feels Like: 77 °F
Forecast: 87 / 63 °F
Wind: 5 mph from North

Location: Santa Monica Municipal Airport

Current Time: Oct 21, 2019 at 12:58:36 am

Latest Report: Oct 20, 2019 at 11:51 pm


Visibility: 10 mi

Pressure: 29.92 "Hg

Humidity: 25%

Dew Point: 38 °F

Location of Culver CityLocation

Past Weather in Culver City — Graph

°F

Culver City Temperature Yesterday

Maximum temperature yesterday: 91 °F (at 3:51 pm)
Minimum temperature yesterday: 58 °F (at 1:51 am)
Average temperature yesterday: 72 °F

High & Low Weather Summary for the Past Weeks

 TemperatureHumidityPressure
High91 °F (Oct 20, 3:51 pm)97% (Oct 20, 5:51 am)30.03 "Hg (Oct 20, 5:51 am)
Low54 °F (Oct 11, 6:51 am)6% (Oct 11, 2:51 pm)29.76 "Hg (Oct 17, 5:51 pm)
Average66 °F66%29.89 "Hg
* Reported Oct 5 10:51 pm — Oct 20 10:51 pm, Culver City. Weather by CustomWeather, © 2019

Note: Actual official high and low records may vary slightly from our data, if they occured in-between our weather recording intervals... More about our weather records

Advertising

Culver City Weather History for the Previous 24 Hours

Scroll right to see more
 ConditionsComfort  
Time TempWeatherWind HumidityBarometerVisibility
10:51 pm
Sun, Oct 20
77 °FClear.6 mph24%29.91 "Hg10 mi
9:51 pm78 °FClear.6 mph25%29.89 "Hg10 mi
8:51 pm79 °FClear.7 mph24%29.87 "Hg10 mi
7:51 pm80 °FClear.9 mph23%29.85 "Hg10 mi
6:51 pm83 °FClear.7 mph20%29.84 "Hg10 mi
5:51 pm86 °FSunny.9 mph19%29.82 "Hg10 mi
4:51 pm89 °FSunny.12 mph19%29.82 "Hg10 mi
3:51 pm91 °FSunny.5 mph18%29.83 "Hg10 mi
2:51 pm84 °FSunny.9 mph35%29.83 "Hg10 mi
1:51 pm80 °FSunny.10 mph41%29.87 "Hg10 mi
12:51 pm77 °FSunny.8 mph44%29.89 "Hg10 mi
11:51 am76 °FSunny.10 mph48%29.91 "Hg10 mi
10:51 am77 °FSunny.5 mph36%29.91 "Hg10 mi
9:51 am72 °FSunny.N/A52%29.90 "Hg10 mi
8:51 am65 °FSunny.3 mph76%29.90 "Hg10 mi
7:51 am60 °FSunny.3 mph90%29.88 "Hg8 mi
6:51 am58 °FClear.3 mph97%29.87 "Hg7 mi
5:51 am58 °FFog.No wind97%29.87 "Hg5 mi
4:51 am58 °FClear.No wind93%29.85 "Hg7 mi
3:51 am59 °FClear.5 mph93%29.85 "Hg10 mi
2:51 am58 °FClear.5 mph93%29.85 "Hg10 mi
1:51 am58 °FClear.No wind93%29.86 "Hg10 mi
12:51 am60 °FClear.No wind90%29.85 "Hg10 mi
Weather by CustomWeather, © 2019

See weather overview